Location: San Vito
(41.8833°N, 12.9833°E)
Time: 01:57:28
(UTC+00:00)

Centaur D AC-28 - Pass Details

Date: 17 November 2019
Orbit: 603 x 36452 km, 28.6° (Epoch: 06 December)

Event Time Altitude Azimuth Distance (km) Brightness Sun altitude
Exits shadow 03:39:27 23° 203° (SSW) 1,988 3.9 -26.0°
Maximum altitude 03:41:34 28° 169° (SSE) 2,209 4.4 -25.6°
Drops below altitude 10° 03:53:34 10° 116° (ESE) 6,890 7.8 -23.4°
Sets 04:07:28 0° 109° (ESE) 12,020 9.5 -20.8°
